Regional Weather Roundup
Issued by NWS Upton, NY

Current Version | Previous Version | Text Only | Print | Product List | Glossary On
Versions: 1 2 3 4 5 6 7 8 9 10 11 12 13 14 15 16 17 18 19 20 21 22 23 24 25 26 27 28 29 30 31 32 33 34 35 36 37 38 39 40 41 42 43 44 45 46 47 48 49 50
000
ASUS41 KOKX 261104
RWROKX

REGIONAL WEATHER ROUNDUP
NATIONAL WEATHER SERVICE NEW YORK NY
700 AM EDT MON SEP 26 2016

NOTE: "FAIR" INDICATES FEW OR NO CLOUDS BELOW 12,000 FEET WITH NO
SIGNIFICANT WEATHER AND/OR OBSTRUCTIONS TO VISIBILITY.

NYZ071-072-176-178-NJZ106-104-261200-
NEW YORK CITY METRO AREA

CITY           SKY/WX    TMP DP  RH WIND       PRES   REMARKS
Central Park   CLEAR     55  45  68 E7        30.22R
LaGuardia APRT PTCLDY    58  48  69 NE7       30.19R
Kennedy INTL   PTCLDY    53  43  68 NE7       30.20R
Newark/Liberty PTCLDY    52  45  77 NE7       30.19R
Bronx Bot Gard   N/A     48  39  71 CALM      30.20F
Wall St Helipt SUNNY     63  55  77 NE14      30.19R
Teterboro      CLEAR     49  43  80 N5        30.19R
$$

NYZ177-179-078>081-261200-
LONG ISLAND NEW YORK

CITY           SKY/WX    TMP DP  RH WIND       PRES   REMARKS
Farmingdale    CLEAR     53  38  56 NE7       30.20R
MacArthur/ISP  PTCLDY    50  43  77 CALM      30.20R
Shirley        CLEAR     44  41  89 NE3       30.21R
Riverhead      NOT AVBL
Westhampton    CLEAR     37  34  89 E3        30.22R
Southampton      N/A     50  45  81 NE1       30.18R
Bridgehampton    N/A     46  43  87 CALM      30.06R
East Hampton   FAIR      39  38  94 CALM      30.20R
Montauk        NOT AVBL
$$

NYZ052-065-067-261200-
HUDSON VALLEY

CITY           SKY/WX    TMP DP  RH WIND       PRES   REMARKS
White Plains   CLEAR     50  36  58 E3        30.20R
Newburgh       CLEAR     41  41 100 CALM      30.22R
Montgomery     FOG       38  36  92 CALM      30.21R VSB 1
Poughkeepsie   CLEAR     35  33  92 CALM      30.22R
Albany         FOG       38  36  92 CALM      30.23R VSB 1/2
$$

NJZ001-105-106-008-010-013-015-019>022-104-261200-
NEW JERSEY

CITY           SKY/WX    TMP DP  RH WIND       PRES   REMARKS
Newark/Liberty PTCLDY    52  45  77 NE7       30.19R
Teterboro      CLEAR     49  43  80 N5        30.19R
Caldwell       CLEAR     45  42  89 CALM      30.21R
Morristown     PTCLDY    39  39 100 CALM      30.20R
Somerville     CLEAR     42  39  89 CALM      30.18R
Linden         NOT AVBL
Sussex         CLEAR     37  36  96 CALM      30.21R
Abdover          N/A     42  40  92 VRB3      30.20R
Trenton        CLEAR     47  44  90 CALM      30.18R
Millville      PTCLDY    48  48 100 CALM      30.18R
Atlantic City  PTCLDY    49  46  90 CALM      30.18R
Wrightstown    CLEAR     45  44  93 CALM      30.16R
Toms River     PTCLDY    40  38  93 CALM      30.19R
Belmar         CLEAR     51  45  79 CALM      30.19R
$$

PAZ047>061-062-071-261200-
EASTERN PENNSYLVANIA

CITY           SKY/WX    TMP DP  RH WIND       PRES   REMARKS
Philadelphia   MOCLDY    54  50  86 CALM      30.18S
Allentown      CLEAR     42  39  89 N3        30.18S
Scranton       CLEAR     48  38  68 VRB3      30.15S
$$

CTZ002-004>006-009-010-012-RIZ004-006-007-MAZ004-011-015-261200-
SOUTHERN NEW ENGLAND
 IN CT

CITY           SKY/WX    TMP DP  RH WIND       PRES   REMARKS
Bradley INTL   PTCLDY    38  35  89 N3        30.23R
Hartford       CLEAR     41  39  93 NE6       30.23R
Danbury        CLEAR     37  35  92 CALM      30.23R
Wtrbury/Oxford PTCLDY    39  34  81 CALM      30.22R
Bridgeport     CLEAR     50  43  77 NE7       30.21R
Meriden        CLEAR     40  36  86 CALM      30.23R
New Haven      PTCLDY    43  39  86 N5        30.22R
Chester        FAIR      43  37  81 N3        30.22R
Groton         CLEAR     45  39  79 N8        30.22R
Wilimantic     MOCLDY    37  36  96 N3        30.24R

 IN RI

CITY           SKY/WX    TMP DP  RH WIND       PRES   REMARKS
Providence     PTCLDY    44  38  79 CALM      30.23R
Block Island   CLEAR     52  47  83 N3        30.22R
Westerly       CLEAR     38  35  89 N3        30.22R
 IN MA

CITY           SKY/WX    TMP DP  RH WIND       PRES   REMARKS
Boston         PTCLDY    49  39  68 NW7       30.22R
Worcester      CLEAR     41  34  76 NW5       30.22R
Westfield      CLEAR     36  35  96 VRB5      30.23S WCI  32
Provincetown   PTCLDY    55  41  59 N9        30.21R
Nantucket      CLEAR     46  39  76 N5        30.19R
$$

ANZ330-335-338-340-345-350-353-355-261200-
COASTAL MARINE OBSERVATIONS


STATION/POSITION TIME  SKY/WX   TEMP    WIND        PRES    VSBY  WAVE
                                AIR SEA DIR/SP/G                  HT/PER
                 (UTC)          (F)     (DEG/KT/KT) (MB)    (MI)  (FT/S)
NY HARB ENTRANCE 0950            65 71  100/  6/  8 1021.4          2/10
20S FIRE ISLAND  0950            64 69  100/  6/  8 1021.3          2/ 9
GREAT SOUTH BAY  1030            58 69   40/ 12/ 14   N/A
23 SSW MONTAUK P 0950            61 68   60/  6/  8 1022.4          2/10
15 E BARNEGAT LI NOT AVBL
HUDSON CANYON    0950            65 69              1021.5          2/10
KINGS POINT      1030            54 72              1021.9
EXECUTION ROCKS  1045            59      50/ 10/ 12   N/A
CENTRAL LI SOUND 1000            59 72   80/ 10/ 12   N/A           1/ 3
EASTERN LI SOUND NOT AVBL
ROBBINS REEF     1030            58     330/  5/  6 1022.3
$$


>>>>>>>>>>>>>>>>>>>>>>>>>>>> KEY <<<<<<<<<<<<<<<<<<<<<<<<<<<
>                                                          <
>     SKY/WX - Sky Condition/Present Weather               <
>     TMP    - Temperature in Fahrenheit                   <
>     DP     - Dew Point in Fahrenheit                     <
>     RH     - Relative Humidity in Percent                <
>     WIND   - Direction (from) and Speed in MPH           <
>     PRES   - Mean Sea Level Pressure (inches of Hg)      <
>     WCI    - Wind Chill Index                            <
>     VSB    - VISIBILITY IN MILES                         <
>     HX     - HEAT INDEX                                  <
>     TC     - TEMPERATURE IN CELSIUS                      <
>     VRB    - VARIABLE WIND DIRECTION                     <
>                                                          <
>>>>>>>>>>>>>>>>>>>>>>>>>>>> KEY <<<<<<<<<<<<<<<<<<<<<<<<<<<



USA.gov is the U.S. government's official web portal to all federal, state and local government web resources and services.